Regional Weather Roundup
Issued by NWS Upton, NY

Current Version | Previous Version | Text Only | Print | Product List | Glossary On
Versions: 1 2 3 4 5 6 7 8 9 10 11 12 13 14 15 16 17 18 19 20 21 22 23 24 25 26 27 28 29 30 31 32 33 34 35 36 37 38 39 40 41 42 43 44 45 46 47 48 49 50
000
ASUS41 KOKX 280104
RWROKX

REGIONAL WEATHER ROUNDUP
NATIONAL WEATHER SERVICE NEW YORK NY
900 PM EDT THU AUG 27 2015

NOTE: "FAIR" INDICATES FEW OR NO CLOUDS BELOW 12,000 FEET WITH NO
SIGNIFICANT WEATHER AND/OR OBSTRUCTIONS TO VISIBILITY.

NYZ071-072-176-178-NJZ106-104-280200-
NEW YORK CITY METRO AREA


CITY           SKY/WX    TMP DP  RH WIND       PRES   REMARKS
CENTRAL PARK   CLEAR     74  50  42 NW6       30.12R
LAGUARDIA APRT PTCLDY    74  52  46 NW14      30.08R
KENNEDY INTL   PTCLDY    74  50  42 NW13      30.09R
NEWARK/LIBERTY PTCLDY    73  52  47 NW8       30.09R
BRNX BOT. GARD   N/A     70  50  49 W2        30.10R
TETERBORO      CLEAR     70  50  49 NW6       30.08R
$$

NYZ177-179-078>081-280200-
LONG ISLAND NEW YORK

CITY           SKY/WX    TMP DP  RH WIND       PRES   REMARKS
FARMINGDALE    CLEAR     73  53  49 NW8       30.08R
ISLIP          PTCLDY    70  55  59 NW7       30.06R
SHIRLEY        PTCLDY    68  56  65 NW6       30.08R
WESTHAMPTON    PTCLDY    64  52  64 CALM      30.08R
MONTAUK POINT    N/A     74  63  68 W5        30.07R
$$

NYZ052-065-067-280200-
HUDSON VALLEY

CITY           SKY/WX    TMP DP  RH WIND       PRES   REMARKS
WHITE PLAINS   CLEAR     66  53  63 W5        30.09R
NEWBURGH       CLEAR     66  57  72 W7        30.11R
MONTGOMERY     CLEAR     61  56  83 CALM      30.11R
POUGHKEEPSIE   MOCLDY    69  55  60 CALM      30.09R
ALBANY         MOCLDY    67  55  65 W9        30.09R
$$

NJZ001-105-106-008-010-013-015-019>022-104-280200-
NEW JERSEY

CITY           SKY/WX    TMP DP  RH WIND       PRES   REMARKS
NEWARK/LIBERTY PTCLDY    73  52  47 NW8       30.09R
TETERBORO      CLEAR     70  50  49 NW6       30.08R
CALDWELL       CLEAR     66  53  63 CALM      30.10R
MORRISTOWN     PTCLDY    66  55  68 NW6       30.10R
SOMERVILLE     CLEAR     63  55  75 CALM      30.09R
SUSSEX         CLEAR     59  55  87 CALM      30.12R
ANDOVER          N/A     59  57  93 CALM      30.13R
TRENTON        CLEAR     69  55  60 N3        30.10R
MILLVILLE      PTCLDY    65  58  78 W5        30.11R
ATLANTIC CITY  PTCLDY    72  56  57 CALM      30.10R
WRIGHTSTOWN    CLEAR     66  55  67 N5        30.08R
TOMS RIVER     PTCLDY    66  55  68 N5        30.10R
BELMAR         PTCLDY    68  52  56 NW6       30.10R
$$

PAZ047>061-062-071-280200-
EASTERN PENNSYLVANIA

CITY           SKY/WX    TMP DP  RH WIND       PRES   REMARKS
PHILADELPHIA   PTCLDY    75  52  44 NW7       30.12R
ALLENTOWN      CLEAR     65  54  67 CALM      30.12R
SCRANTON       CLOUDY    67  53  61 NW3       30.14R
$$

CTZ002-004>006-009-010-012-RIZ004-006-007-MAZ004-011-015-280200-
SOUTHERN NEW ENGLAND
 IN CT

CITY           SKY/WX    TMP DP  RH WIND       PRES   REMARKS
BRADLEY INTL   MOCLDY    68  55  63 NW5       30.06R
HARTFORD       MOCLDY    71  56  58 W6        30.07R
DANBURY        CLEAR     62  55  77 W3        30.11R
WTRBRY/OXFORD  CLEAR     63  52  67 CALM      30.11R
BRIDGEPORT     CLEAR     72  57  59 W5        30.08R
MERIDEN        CLEAR     69  55  60 NW6       30.07R
NEW HAVEN      CLEAR     72  56  57 NW5       30.08R
CHESTER        NOT AVBL
GROTON         PTCLDY    65  60  84 CALM      30.06R
WILLIMANTIC    CLEAR     69  56  62 NW5       30.07R

 IN RI

CITY           SKY/WX    TMP DP  RH WIND       PRES   REMARKS
PROVIDENCE     PTCLDY    70  55  59 W5        30.05R
BLOCK ISLAND   PTCLDY    70  64  83 W6        30.06R
WESTERLY       PTCLDY    66  57  72 CALM      30.06R

 IN MA

CITY           SKY/WX    TMP DP  RH WIND       PRES   REMARKS
BOSTON         PTCLDY    74  53  48 NW10      30.04R
WORCESTER      PTCLDY    63  54  72 W9        30.08R
WESTFIELD      CLEAR     67  56  67 CALM      30.07R
PROVINCETOWN   CLEAR     64  54  68 W3        30.03R
NANTUCKET      PTCLDY    70  64  81 W9        30.03R
$$

ANZ330-335-338-340-345-350-353-355-280200-
COASTAL MARINE OBSERVATIONS


STATION/POSITION TIME  SKY/WX   TEMP    WIND        PRES    VSBY  WAVE
                                AIR SEA DIR/SP/G                  HT/PER
                 (UTC)          (F)     (DEG/KT/KT) (MB)    (MI)  (FT/S)
NY HARB ENTRANCE 2350            76 77  310/ 14/ 17 1017.3          2/10
4S FIRE IS       NOT AVBL
20S FIRE ISLAND  2350            74 75  260/ 12/ 14 1017.2          2/11
GREAT SOUTH BAY  0000            74 79   CALM  /  4   N/A
23SW MTP         0050            74 73  270/ 10/ 12 1017.4          3/10
HUDSON CANYON    NOT AVBL
KINGS POINT      0000            74 74   10/ 10/ 14 1017.4
EXECUTION ROCKS  0000            74     280/ 12/ 16   N/A
CENTRAL LI SOUND NOT AVBL
EASTERN LI SOUND 0000            72 71  270/  4/  4   N/A
ROBBINS REEF     0000            74     320/ 14/ 17 1017.1
$$


>>>>>>>>>>>>>>>>>>>>>>>>>>>> KEY <<<<<<<<<<<<<<<<<<<<<<<<<<<
>                                                          <
>     SKY/WX - SKY CONDITION/PRESENT WEATHER               <
>     TMP    - TEMPERATURE IN FAHRENHEIT                   <
>     DP     - DEWPOINT IN FAHRENHEIT                      <
>     RH     - RELATIVE HUMIDITY IN PERCENT                <
>     WIND   - DIRECTION AND SPEED IN MPH                  <
>     PRES   - MEAN SEA LEVEL PRESSURE IN INCHES OF HG     <
>     WCI    - WIND CHILL INDEX                            <
>     VSB    - VISIBILITY IN MILES                         <
>     HX     - HEAT INDEX                                  <
>     TC     - TEMPERATURE IN CELSIUS                      <
>     VRB    - VARIABLE WIND DIRECTION                     <
>                                                          <
>>>>>>>>>>>>>>>>>>>>>>>>>>>> KEY <<<<<<<<<<<<<<<<<<<<<<<<<<<




USA.gov is the U.S. government's official web portal to all federal, state and local government web resources and services.